Regional Weather Roundup
Issued by NWS

Home | Current Version | Previous Version | Graphics & Text | Print | Product List | Glossary On
Versions: 1 2 3 4 5 6 7 8 9 10 11 12 13 14 15 16 17 18 19 20 21 22 23 24 25 26 27 28 29 30 31 32 33 34 35 36 37 38 39 40 41 42 43 44 45 46 47 48 49 50
000
ASUS43 KIND 292159
RWRIN

WEATHER ROUNDUP FOR INDIANA
NATIONAL WEATHER SERVICE INDIANAPOLIS IN
600 PM EDT SUN MAY 29 2016

NOTE: "FAIR" INDICATES FEW OR NO CLOUDS BELOW 12,000 FEET WITH NO
SIGNIFICANT WEATHER AND/OR OBSTRUCTIONS TO VISIBILITY.

* - STATION DOES NOT REPORT WEATHER SUCH AS PRECIPITATION OR FOG.

+ - STATION NOT QUALITY CONTROLLED BY THE NATIONAL WEATHER SERVICE.
    USE DATA WITH CAUTION...ESPECIALLY DEWPOINT AND RELATIVE
    HUMIDITY OBSERVATIONS.

INZ001>003-010>013-019-020-292300-
NORTHWEST INDIANA

CITY           SKY/WX    TMP DP  RH WIND       PRES   REMARKS
GARY /AIRPORT/ MOSUNNY   81  66  61 W16       30.01S

$$

LMZ046-743>745-292300-
SOUTHERN LAKE MICHIGAN

STATION/POSITION TIME  TEMP    WIND        PRES    WAVE
                       AIR SEA DIR/SP/G            HT
                 (UTC) (F)     (DEG/KT/KT) (MB)    (FT)
BURNS HARBOR     2100   66     310/ 11/ 13 1016.3F
MICHIGAN CITY    2100   64     230/  4/  4   N/A
5NW MICH CITY    2100   63 58  300/  8/  8   N/A     1

$$

INZ004-005-014>016-021>024-292300-
NORTH CENTRAL INDIANA

CITY           SKY/WX    TMP DP  RH WIND       PRES   REMARKS
ELKHART        SUNNY     82  64  54 MISG      29.98F
GOSHEN         MOSUNNY   81  55  40 W17G25    29.97F
SOUTH BEND     SUNNY     80  58  46 NW16      29.99S

$$

INZ006>009-017-018-025>027-292300-
NORTHEAST INDIANA

CITY           SKY/WX    TMP DP  RH WIND       PRES   REMARKS
ANGOLA *+        N/A     84  81  89 W10       29.96F HX  98
FORT WAYNE     MOSUNNY   88  49  25 W16G26    29.97F

$$

INZ028-029-035-036-043>045-051>053-292300-
WEST CENTRAL INDIANA

CITY           SKY/WX    TMP DP  RH WIND       PRES   REMARKS
CRAWFORDSVL +  MOSUNNY   83  55  39 W12       30.02S
GREENCASTLE +  SUNNY     82  61  47 W5        30.03F
LAFAYETTE      SUNNY     83  52  34 W12       30.00S
TERRE HAUTE    CLOUDY    86  57  37 W12G17    30.03F

$$

INZ030>032-037>040-046>048-054>057-064-065-292300-
CENTRAL INDIANA

CITY           SKY/WX    TMP DP  RH WIND       PRES   REMARKS
COLUMBUS       MOSUNNY   82  63  51 W10       30.02S
INDIANAPOLIS   CLOUDY    80  65  59 S17       30.01S THUNDER
-EAGLE CREEK   CLOUDY    83  58  42 NW10      30.01S
KOKOMO *+      SUNNY     84  55  37 W13       29.99S
SHELBYVILLE    MOSUNNY   85  60  42 W14       30.01R

$$

INZ033-034-041-042-049-050-058-059-292300-
EAST CENTRAL INDIANA

CITY           SKY/WX    TMP DP  RH WIND       PRES   REMARKS
MUNCIE         SUNNY     86  61  42 SW12      30.00F

$$

INZ060-061-067>069-081>083-085>088-292300-
SOUTHWEST INDIANA

CITY           SKY/WX    TMP DP  RH WIND       PRES   REMARKS
EVANSVILLE     MOSUNNY   83  67  58 SW5       30.03F
HUNTINGBURG *+ PTSUNNY   68  63  83 E5        30.06R

$$

INZ062-063-066-070>080-084-089>092-292300-
SOUTH CENTRAL AND SOUTHEAST INDIANA

CITY           SKY/WX    TMP DP  RH WIND       PRES   REMARKS
BLOOMINGTON    CLOUDY    72  65  78 SW8       30.04S
MADISON *+     CLOUDY    82  63  51 W6        30.04S
SEYMOUR +      MOSUNNY   88  64  45 W16       30.01S

$$




USA.gov is the U.S. government's official web portal to all federal, state and local government web resources and services.